Location: Newark
(48.6461°N, 4.3644°W)
Time: 15:17:38
(UTC+00:00)

Transit 4A - Pass Details

Date: 30 January 2020
Orbit: 872 x 973 km, 66.8° (Epoch: 26 February)

Event Time Altitude Azimuth Distance (km) Brightness Sun altitude
Rises 10:27:33 0° 310° (NW) 3,489 10.3 18.2°
Reaches altitude 10° 10:31:39 10° 338° (NNW) 2,538 9.7 18.5°
Maximum altitude 10:34:17 13° 5° (N) 2,319 9.6 18.7°
Drops below altitude 10° 10:36:56 10° 32° (NNE) 2,531 10.0 18.9°
Sets 10:41:00 0° 60° (ENE) 3,470 10.9 19.3°
